Location: Poughquag
(41.6090°N, 73.6820°W)
Time: 09:30:32
(UTC-04:00)

Vanguard 3 - Visible Passes

Search period start: 14 October 2019 00:00
Search period end: 24 October 2019 00:00
Orbit: 508 x 3262 km, 33.3° (Epoch: 13 October)

Date Brightness Start Highest point End Pass type
(mag) Time Alt. Az. Time Alt. Az. Time Alt. Az.
14 Oct 9.1 03:45:27 26° SE 03:45:27 26° SE 03:49:38 10° ESE visible
14 Oct 8.8 05:50:01 18° WSW 05:54:30 40° S 06:04:30 10° ESE visible
15 Oct 8.2 04:40:22 40° S 04:40:29 40° S 04:48:28 10° ESE visible
16 Oct 9.6 03:30:43 18° ESE 03:30:43 18° ESE 03:32:49 10° ESE visible
16 Oct 8.6 05:35:18 23° SW 05:38:22 34° S 05:46:58 10° SE visible
17 Oct 8.6 04:25:40 32° SSE 04:25:40 32° SSE 04:31:23 10° ESE visible
17 Oct 9.3 06:31:00 10° WSW 06:36:26 25° SSW 06:44:35 10° SSE visible
18 Oct 10.0 03:16:03 10° ESE 03:16:03 10° ESE 03:16:07 10° ESE visible
18 Oct 8.6 05:20:38 25° SW 05:22:18 28° S 05:29:28 10° SE visible
19 Oct 9.1 04:11:02 22° SE 04:11:02 22° SE 04:14:21 10° SE visible
19 Oct 9.3 06:15:55 10° WSW 06:20:19 19° SSW 06:26:25 10° SSE visible
20 Oct 8.8 05:06:02 22° SSW 05:06:18 22° SSW 05:11:58 10° SE visible
21 Oct 9.7 03:56:29 13° SE 03:56:29 13° SE 03:57:23 10° SE visible
21 Oct 9.4 06:01:18 10° SW 06:04:15 13° SSW 06:07:52 10° S visible
22 Oct 9.2 04:51:32 16° S 04:51:32 16° S 04:54:22 10° SSE visible
